Weather in Mayskiy

Russia / Karachay-Cherkess Republic     44°18′17″N   42°24′37″E
temp.,
°C
wind,
m/s
gust,
m/s
humid.,
%
clouds,
%
prec.,
mm/h
press.,
hPa
HPBL,
m
16 april, fri
fri1600:00+9w00767 0.0 101910
03:00+8s11805 0.0 101910
06:00+8sse1184100 0.0 101912
09:00+14e465794 0.0 1018617
12:00+18e66422 0.0 10161568
15:00+19e884111 0.0 10151767
18:00+12n71086100 1.8 1018250
21:00+10wnw119596 4.4 102016
17 april, sat
sat1700:00+9ene2296100 0.1 101822
03:00+10wsw2290100 0.1 101832
06:00+9w3895100 0.1 1020328
09:00+10nw3689100 0.1 1021517
12:00+9nw4686100 0.2 1022547
15:00+9nw3484100 0.3 1023487
18:00+8nnw1191100 0.9 1024179
21:00+7ene129590 1.0 1023122
18 april, sun
sun1800:00+6ese119787 0.0 102316
03:00+6e239890 0.0 102248
06:00+6ene3799100 0.0 1021242
09:00+11ese6883100 0.0 1018595
12:00+15ese7768100 0.0 1016716
15:00+16e566790 0.6 1015747
18:00+12e249413 4.8 1017194
21:00+10ese2296100 4.9 101819
19 april, mon
mon1900:00+10ssw1193100 0.1 101711
03:00+10ese1191100 0.1 101710
06:00+11ese2287100 0.0 101615
09:00+15ese2371100 0.0 1016291
12:00+19e346096 0.0 1015767
15:00+21e6652100 0.0 10131210
18:00+17e51071100 0.7 1013389
21:00+14ese51381100 0.9 1011367
20 april, tue
tue2000:00+13ese3885100 0.1 1009163
03:00+13ene2281100 0.1 100841
06:00+12e3783100 0.0 1006130
09:00+15e3571100 0.0 1004162
12:00+18ese1163100 0.0 1006251
15:00+19nne4461100 0.2 1006978
18:00+10wnw61088100 7.9 1013829
21:00+9nw2493100 11.7 1017373